| time (UTC) | temp C | wind direction | speed KPH | gust KPH | rain 1hr cm | rain 24hr cm | rain mn cm | humidity % | barometer mb |
| 20260510034500 | 9 | 159 | 0.0 | 1.6 | 0.00 | 0.30 | 0.30 | 93 | 1007.9 |
| 20260510033001 | 10 | 159 | 0.0 | 4.8 | 0.00 | 0.30 | 0.30 | 92 | 1007.8 |
| 20260510031500 | 10 | 159 | 0.0 | 3.2 | 0.00 | 0.30 | 0.30 | 91 | 1007.5 |
| 20260510024500 | 10 | 150 | 1.6 | 4.8 | 0.00 | 0.30 | 0.30 | 90 | 1007.2 |
| 20260510023000 | 11 | 212 | 0.0 | 3.2 | 0.00 | 0.30 | 0.30 | 90 | 1007.2 |
| 20260510021501 | 11 | 163 | 1.6 | 4.8 | 0.00 | 0.30 | 0.30 | 90 | 1007.0 |
| 20260510020004 | 11 | 203 | 1.6 | 4.8 | 0.00 | 0.30 | 0.30 | 90 | 1007.0 |
| 20260510014500 | 11 | 205 | 1.6 | 3.2 | 0.00 | 0.30 | 0.30 | 91 | 1006.2 |
| 20260510013000 | 11 | 214 | 1.6 | 3.2 | 0.03 | 0.30 | 0.30 | 91 | 1006.6 |
| 20260510010005 | 11 | 174 | 4.8 | 11.3 | 0.20 | 0.30 | 0.30 | 91 | 1005.9 |
| 20260510004501 | 11 | 184 | 4.8 | 11.3 | 0.30 | 0.30 | 0.30 | 90 | 1006.6 |
| 20260510003000 | 11 | 198 | 6.4 | 19.3 | 0.28 | 0.28 | 0.28 | 89 | 1006.9 |
| 20260510000005 | 13 | 277 | 14.5 | 37.0 | 0.10 | 0.10 | 0.10 | 81 | 1006.6 |
| 20260509234500 | 17 | 179 | 1.6 | 4.8 | 0.00 | 0.00 | 0.00 | 63 | 1004.7 |
| 20260509231503 | 17 | 164 | 1.6 | 8.0 | 0.00 | 0.00 | 0.00 | 61 | 1004.0 |
| 20260509230004 | 18 | 160 | 1.6 | 6.4 | 0.00 | 0.00 | 0.00 | 60 | 1004.2 |
| 20260509224500 | 18 | 198 | 4.8 | 9.7 | 0.00 | 0.00 | 0.00 | 59 | 1004.4 |
| 20260509223000 | 18 | 171 | 4.8 | 14.5 | 0.00 | 0.00 | 0.00 | 58 | 1004.4 |
| 20260509221500 | 18 | 180 | 6.4 | 12.9 | 0.00 | 0.00 | 0.00 | 58 | 1004.6 |
| 20260509220007 | 18 | 180 | 8.0 | 16.1 | 0.00 | 0.00 | 0.00 | 57 | 1004.5 |
| 20260509214459 | 18 | 199 | 6.4 | 14.5 | 0.00 | 0.00 | 0.00 | 56 | 1004.3 |
| 20260509210002 | 20 | 180 | 9.7 | 20.9 | 0.00 | 0.00 | 0.00 | 54 | 1004.4 |
| 20260509204459 | 20 | 175 | 11.3 | 24.1 | 0.00 | 0.00 | 0.00 | 55 | 1004.4 |
| 20260509202959 | 19 | 236 | 6.4 | 16.1 | 0.00 | 0.00 | 0.00 | 59 | 1004.2 |
| 20260509201459 | 18 | 221 | 8.0 | 17.7 | 0.00 | 0.00 | 0.00 | 59 | 1004.5 |
| 20260509200005 | 18 | 184 | 9.7 | 22.5 | 0.00 | 0.00 | 0.00 | 60 | 1004.8 |
| 20260509192959 | 18 | 211 | 9.7 | 25.7 | 0.00 | 0.00 | 0.00 | 62 | 1005.2 |
| 20260509191459 | 18 | 194 | 9.7 | 20.9 | 0.00 | 0.00 | 0.00 | 62 | 1005.2 |
| 20260509190006 | 18 | 136 | 6.4 | 14.5 | 0.00 | 0.00 | 0.00 | 63 | 1005.3 |
| 20260509184459 | 18 | 180 | 8.0 | 17.7 | 0.00 | 0.00 | 0.00 | 64 | 1005.6 |
| 20260509182959 | 18 | 109 | 9.7 | 17.7 | 0.00 | 0.00 | 0.00 | 59 | 1005.8 |
| 20260509181459 | 17 | 123 | 6.4 | 16.1 | 0.00 | 0.00 | 0.00 | 60 | 1006.0 |
| 20260509180002 | 18 | 229 | 8.0 | 16.1 | 0.00 | 0.00 | 0.00 | 54 | 1006.2 |
| 20260509174500 | 18 | 204 | 11.3 | 17.7 | 0.00 | 0.00 | 0.00 | 57 | 1006.2 |
| 20260509172959 | 17 | 229 | 6.4 | 17.7 | 0.00 | 0.00 | 0.00 | 59 | 1006.3 |
| 20260509171459 | 17 | 197 | 8.0 | 17.7 | 0.00 | 0.00 | 0.00 | 65 | 1006.4 |
| 20260509164459 | 16 | 182 | 4.8 | 14.5 | 0.00 | 0.00 | 0.00 | 71 | 1006.7 |
| 20260509162959 | 16 | 159 | 4.8 | 14.5 | 0.00 | 0.00 | 0.00 | 72 | 1007.0 |
| 20260509161459 | 15 | 69 | 4.8 | 9.7 | 0.00 | 0.00 | 0.00 | 74 | 1007.3 |
| 20260509154458 | 15 | 163 | 4.8 | 22.5 | 0.00 | 0.00 | 0.00 | 73 | 1007.6 |
| 20260509153000 | 15 | 215 | 3.2 | 9.7 | 0.00 | 0.00 | 0.00 | 75 | 1007.7 |
| 20260509151458 | 14 | 230 | 4.8 | 9.7 | 0.00 | 0.00 | 0.00 | 76 | 1007.7 |
| 20260509150002 | 14 | 185 | 4.8 | 11.3 | 0.00 | 0.00 | 0.00 | 77 | 1007.9 |
| 20260509144459 | 14 | 165 | 4.8 | 11.3 | 0.00 | 0.00 | 0.00 | 76 | 1007.9 |
| 20260509142958 | 14 | 188 | 4.8 | 8.0 | 0.00 | 0.00 | 0.00 | 78 | 1008.2 |
| 20260509141500 | 13 | 144 | 4.8 | 11.3 | 0.00 | 0.00 | 0.00 | 79 | 1008.1 |
| 20260509134459 | 13 | 127 | 4.8 | 12.9 | 0.00 | 0.00 | 0.00 | 80 | 1008.3 |
| 20260509132959 | 12 | 139 | 6.4 | 12.9 | 0.00 | 0.00 | 0.00 | 82 | 1008.6 |
| 20260509131458 | 12 | 199 | 8.0 | 12.9 | 0.00 | 0.00 | 0.00 | 83 | 1008.9 |
| 20260509130001 | 11 | 168 | 4.8 | 12.9 | 0.00 | 0.00 | 0.00 | 84 | 1008.9 |
| 20260509122958 | 10 | 173 | 3.2 | 8.0 | 0.00 | 0.08 | 0.00 | 86 | 1009.2 |
| 20260509120002 | 7 | 214 | 0.0 | 1.6 | 0.00 | 0.08 | 0.00 | 88 | 1009.1 |
| 20260509114458 | 6 | 201 | 0.0 | 0.0 | 0.00 | 0.08 | 0.00 | 90 | 1009.2 |
| 20260509112958 | 5 | 212 | 0.0 | 1.6 | 0.00 | 0.08 | 0.00 | 90 | 1009.2 |
| 20260509111458 | 5 | 303 | 0.0 | 0.0 | 0.00 | 0.08 | 0.00 | 90 | 1009.3 |
| 20260509104458 | 3 | 303 | 0.0 | 0.0 | 0.00 | 0.08 | 0.00 | 91 | 1009.1 |
| 20260509101458 | 3 | 303 | 0.0 | 0.0 | 0.00 | 0.08 | 0.00 | 92 | 1009.1 |
| 20260509100002 | 3 | 303 | 0.0 | 0.0 | 0.00 | 0.08 | 0.00 | 92 | 1009.1 |
| 20260509094458 | 3 | 303 | 0.0 | 0.0 | 0.00 | 0.08 | 0.00 | 92 | 1009.1 |
| 20260509092959 | 3 | 303 | 0.0 | 0.0 | 0.00 | 0.08 | 0.00 | 92 | 1009.1 |
| 20260509091459 | 3 | 303 | 0.0 | 0.0 | 0.00 | 0.08 | 0.00 | 91 | 1009.2 |
| 20260509090002 | 3 | 303 | 0.0 | 0.0 | 0.00 | 0.08 | 0.00 | 91 | 1009.3 |
| 20260509084459 | 3 | 303 | 0.0 | 0.0 | 0.00 | 0.08 | 0.00 | 92 | 1009.4 |
| 20260509082959 | 2 | 303 | 0.0 | 0.0 | 0.00 | 0.08 | 0.00 | 92 | 1009.4 |
| 20260509081458 | 2 | 303 | 0.0 | 0.0 | 0.00 | 0.08 | 0.00 | 92 | 1009.6 |
| 20260509080000 | 2 | 303 | 0.0 | 0.0 | 0.00 | 0.08 | 0.00 | 92 | 1009.6 |
| 20260509074500 | 2 | 303 | 0.0 | 0.0 | 0.00 | 0.08 | 0.00 | 92 | 1009.8 |
| 20260509070000 | 2 | 303 | 0.0 | 0.0 | 0.00 | 0.08 | 0.00 | 91 | 1010.0 |
| 20260509064458 | 2 | 303 | 0.0 | 0.0 | 0.00 | 0.08 | 0.00 | 90 | 1010.1 |
| 20260509062957 | 2 | 303 | 0.0 | 0.0 | 0.00 | 0.08 | 0.00 | 90 | 1010.4 |
| 20260509061457 | 3 | 303 | 0.0 | 0.0 | 0.00 | 0.08 | 0.00 | 89 | 1010.5 |
| 20260509060000 | 3 | 303 | 0.0 | 0.0 | 0.00 | 0.08 | 0.00 | 89 | 1010.7 |
| 20260509054457 | 3 | 303 | 0.0 | 0.0 | 0.00 | 0.08 | 0.00 | 89 | 1010.8 |
| 20260509052958 | 3 | 303 | 0.0 | 0.0 | 0.00 | 0.08 | 0.00 | 88 | 1010.9 |
| 20260509051457 | 3 | 303 | 0.0 | 0.0 | 0.00 | 0.08 | 0.00 | 90 | 1011.1 |
| 20260509050001 | 3 | 303 | 0.0 | 0.0 | 0.00 | 0.08 | 0.00 | 90 | 1011.2 |
| 20260509044457 | 3 | 303 | 0.0 | 0.0 | 0.00 | 0.10 | 0.00 | 88 | 1011.2 |
| 20260509042958 | 3 | 303 | 0.0 | 0.0 | 0.00 | 0.10 | 0.00 | 88 | 1011.4 |
| 20260509041458 | 4 | 303 | 0.0 | 0.0 | 0.00 | 0.10 | 0.00 | 88 | 1011.7 |